Tracking 20037 objects as of 20-Nov-2019
Live streaming from Space Station
objects crossing your sky now

COSMOS 2145

Track COSMOS 2145 now!
10-day predictions
COSMOS 2145 is classified as:


NORAD ID: 21301
Int'l Code: 1991-033C
Perigee: 1,410.3 km
Apogee: 1,424.5 km
Inclination: 82.6 °
Period: 114.0 minutes
Semi major axis: 7788 km
RCS: 1.1428 m2 (large)
Launch date: May 16, 1991
Source: Commonwealth of Independent States (former USSR) (CIS)
Launch site: PLESETSK MISSILE AND SPACE COMPLEX (PKMTR)
aabbcc
Your satellite tracking list
Your tracking list is empty




NASA's NSSDC Master Catalog

Two Line Element Set (TLE):
1 21301U 91033C   19323.85103522 +.00000011 +00000-0 +43613-5 0  9991
2 21301 082.5712 044.0789 0009088 136.3801 223.8010 12.63083170314402
Source of the keplerian elements: AFSPC